Peoria, IL

6:31 PM CST on November 18, 2017 (GMT -0600)
Greater Peoria Regional

Weather History for KPIA - November, 2011

Change the Weather History Date:

Sunday, November 6, 2011

  Actual Average Record
Temperature  
Mean Temperature 54 °F 46 °F  
Max Temperature 60 °F 56 °F 77 °F (1915)
Min Temperature 48 °F 37 °F 17 °F (1991)
Degree Days  
Heating Degree Days 11 19  
Month to date heating degree days 87 106  
Since 1 July heating degree days 533 552  
Cooling Degree Days 0 0  
Month to date cooling degree days 0 0  
Year to date cooling degree days 1265 1039  
Growing Degree Days 4 (Base 50)    
Moisture  
Dew Point 45 °F    
Average Humidity 71    
Maximum Humidity 80    
Minimum Humidity 62    
Precipitation  
Precipitation 0.00 in 0.11 in 1.40 in (2000)
Month to date precipitation 1.28 0.63  
Year to date precipitation 33.57 31.57  
Snow  
Snow 0.00 in 0.00 in 6.50 in (1951)
Month to date snowfall 0.0 0.0  
Since 1 July snowfall 0.0 T  
Since 1 September snowfall 0.0 T  
Snow Depth 0.00 in    
Sea Level Pressure  
Sea Level Pressure 30.03 in    
Wind  
Wind Speed 14 mph (South)    
Max Wind Speed 25 mph    
Max Gust Speed 33 mph    
Visibility 10 miles    
Events      
T = Trace of Precipitation, MM = Missing Value Source: NWS Daily Summary

Daily Weather History Graph

Daily Weather History Graph

Search for Another Location

Airport or City:

Trip Planner

Search our weather history database for the weather conditions in past years. The results will help you decide how hot, cold, wet, or windy it might be!

Date:

Astronomy

Nov. 06, 2011 Rise Set
Actual Time 6:34 AM CST 4:49 PM CST
Civil Twilight 6:05 AM CST 5:18 PM CST
Nautical Twilight 5:33 AM CST 5:50 PM CST
Astronomical Twilight 5:01 AM CST 6:22 PM CST
Moon 2:34 PM CST (11/6) 2:39 AM CST (11/6)
Length of Visible Light 11h 12m
Length of Day
10h 15m
Waxing Gibbous, 86% of the Moon is Illuminated
Nov 6
Waxing Gibbous
Nov 10
Full
Nov 18
Last Quarter
Nov 25
New
Dec 2
First Quarter

Hourly Weather History & Observations

Time (CST) Temp. Dew Point Humidity Pressure Visibility Wind Dir Wind Speed Gust Speed Precip Events Conditions
12:54 AM 48.0 °F 39.0 °F 71% 30.04 in 10.0 mi South 15.0 mph - N/A   Clear
1:54 AM 48.0 °F 39.9 °F 74% 30.02 in 10.0 mi South 12.7 mph - N/A   Clear
1:54 AM 48.9 °F 41.0 °F 74% 30.02 in 10.0 mi South 15.0 mph - N/A   Clear
2:54 AM 48.0 °F 41.0 °F 77% 30.01 in 10.0 mi South 13.8 mph 23.0 mph N/A   Clear
3:54 AM 48.9 °F 42.1 °F 77% 30.00 in 10.0 mi South 13.8 mph 21.9 mph N/A   Clear
4:54 AM 48.9 °F 42.1 °F 77% 30.00 in 10.0 mi South 16.1 mph 23.0 mph N/A   Clear
5:54 AM 48.9 °F 43.0 °F 80% 30.01 in 9.0 mi South 13.8 mph 23.0 mph N/A   Clear
6:54 AM 48.9 °F 43.0 °F 80% 30.01 in 7.0 mi South 13.8 mph - N/A   Overcast
7:54 AM 52.0 °F 45.0 °F 77% 30.02 in 8.0 mi South 13.8 mph 23.0 mph N/A   Overcast
8:54 AM 55.0 °F 46.9 °F 74% 30.02 in 10.0 mi South 20.7 mph 27.6 mph N/A   Mostly Cloudy
9:54 AM 55.9 °F 46.9 °F 72% 30.02 in 10.0 mi South 16.1 mph 33.4 mph N/A   Overcast
10:54 AM 55.9 °F 46.9 °F 72% 30.03 in 10.0 mi South 20.7 mph 32.2 mph N/A   Overcast
11:54 AM 57.9 °F 48.0 °F 70% 30.01 in 10.0 mi South 19.6 mph 25.3 mph N/A   Overcast
12:54 PM 59.0 °F 48.0 °F 67% 30.01 in 10.0 mi South 19.6 mph 28.8 mph N/A   Overcast
1:54 PM 60.1 °F 48.0 °F 64% 30.00 in 10.0 mi South 16.1 mph 26.5 mph N/A   Overcast
2:42 PM 59.0 °F 48.2 °F 67% 30.01 in 10.0 mi South 13.8 mph - N/A   Overcast
2:54 PM 59.0 °F 48.0 °F 67% 30.01 in 10.0 mi South 15.0 mph - N/A   Overcast
3:54 PM 60.1 °F 48.9 °F 67% 30.02 in 10.0 mi South 13.8 mph - N/A   Overcast
4:04 PM 60.8 °F 48.2 °F 63% 30.02 in 10.0 mi South 13.8 mph 21.9 mph N/A   Overcast
4:54 PM 59.0 °F 46.9 °F 64% 30.04 in 10.0 mi South 10.4 mph - N/A   Overcast
5:54 PM 57.9 °F 45.0 °F 62% 30.06 in 10.0 mi South 19.6 mph - N/A   Overcast
6:54 PM 55.9 °F 44.1 °F 64% 30.08 in 10.0 mi South 16.1 mph - N/A   Mostly Cloudy
7:54 PM 55.0 °F 44.1 °F 67% 30.09 in 10.0 mi South 11.5 mph - N/A   Mostly Cloudy
8:54 PM 53.1 °F 44.1 °F 71% 30.11 in 10.0 mi SSW 9.2 mph - N/A   Clear
9:54 PM 51.1 °F 44.1 °F 77% 30.12 in 10.0 mi South 9.2 mph - N/A   Clear
10:54 PM 52.0 °F 44.1 °F 74% 30.12 in 10.0 mi SSW 6.9 mph - N/A   Overcast